Location: Vancouver
(49.2500°N, 123.1330°W)
Time: 02:51:12
(UTC-07:00)

Transit 2A Rocket - Visible Passes

Search period start: 23 June 2018 00:00
Search period end: 03 July 2018 00:00
Orbit: 594 x 909 km, 66.7° (Epoch: 22 June)

Date Brightness Start Highest point End Pass type
(mag) Time Alt. Az. Time Alt. Az. Time Alt. Az.
23 Jun 5.7 03:50:05 10° S 03:54:44 41° ESE 03:59:04 10° NE visible
24 Jun 6.4 03:08:36 11° SSE 03:12:26 25° ESE 03:16:12 10° ENE visible
25 Jun 7.0 02:27:32 10° SE 02:30:14 15° ESE 02:32:49 10° ENE visible
25 Jun 4.7 04:07:18 10° SW 04:12:14 87° WNW 04:16:48 10° NE visible
26 Jun 5.1 03:25:58 16° SSW 03:29:49 57° ESE 03:34:18 10° NE visible
27 Jun 5.8 02:44:38 19° S 02:47:28 34° ESE 02:51:36 10° NE visible
27 Jun 5.6 04:25:25 10° WSW 04:29:58 40° NW 04:34:13 10° NNE visible
28 Jun 6.4 02:03:15 16° SE 02:05:12 21° ESE 02:08:38 10° ENE visible
28 Jun 4.9 03:43:09 13° SW 03:47:24 63° NW 03:51:53 10° NNE visible
29 Jun 6.9 01:21:50 11° ESE 01:23:02 12° ESE 01:24:49 10° E visible
29 Jun 4.7 03:01:44 21° SSW 03:04:55 80° SE 03:09:28 10° NE visible
30 Jun 5.2 02:20:17 27° S 02:22:31 48° ESE 02:26:54 10° NE visible
30 Jun 6.0 04:01:01 10° WSW 04:05:13 31° NW 04:09:13 10° NNE visible
01 Jul 5.9 01:38:47 24° SE 01:40:12 29° ESE 01:44:08 10° NE visible
01 Jul 5.4 03:18:40 14° WSW 03:22:36 46° NW 03:26:56 10° NNE visible
02 Jul 6.5 00:57:14 17° ESE 00:57:58 17° ESE 01:00:58 10° ENE visible
02 Jul 4.8 02:37:08 23° SW 02:40:04 74° NW 02:44:34 10° NNE visible
02 Jul 6.9 04:20:14 10° WNW 04:23:19 17° NNW 04:26:19 10° N visible
